Regional Weather Roundup
Issued by NWS

Home | Current Version | Previous Version | Text Only | Print | Product List | Glossary Off
Versions: 1 2 3 4 5 6 7 8 9 10 11 12 13 14 15 16 17 18 19 20 21 22 23 24 25 26 27 28 29 30 31 32 33 34 35 36 37 38 39 40 41 42 43 44 45 46 47 48 49 50

000
ASUS43 KBIS 070210
RWRND

NORTH DAKOTA REGIONAL WEATHER ROUNDUP
NATIONAL WEATHER SERVICE BISMARCK ND
800 PM CST SAT FEB 06 2016

NOTE: "FAIR" INDICATES FEW OR NO CLOUDS BELOW 12,000 FEET WITH NO
SIGNIFICANT WEATHER AND/OR OBSTRUCTIONS TO VISIBILITY.


NDZ001>003-009>011-017-070300-
NORTHWEST NORTH DAKOTA

CITY           SKY/WX    TMP DP  RH WIND       PRES   REMARKS
WILLISTON      PTCLDY    39  26  59 W21       29.78R
MINOT          LGT RAIN  41  32  70 W32G39    29.59R
MINOT AFB      LGT RAIN  38  37  99 W26G41    29.57R
$$

NDZ018>021-031>035-040>046-070300-
SOUTHWEST NORTH DAKOTA

CITY           SKY/WX    TMP DP  RH WIND       PRES   REMARKS
BISMARCK       PTCLDY    47  22  37 W20G29    29.71R
DICKINSON      MOCLDY    37  26  64 W25G36    29.78R
GARRISON         N/A     40  33  76 W35G52    29.65R
HETTINGER ARPT CLEAR     39  24  55 NW33G46   29.85R
$$

NDZ004>008-012>016-024-026-027-054-070300-
NORTHEAST NORTH DAKOTA

CITY           SKY/WX    TMP DP  RH WIND       PRES   REMARKS
GRAND FORKS    CLOUDY    40  32  73 W15       29.52S
GRND FRKS AFB  CLOUDY    40  32  74 W21       29.52R
$$

NDZ022-023-025-028>030-036>039-047>053-070300-
SOUTHEAST NORTH DAKOTA

CITY           SKY/WX    TMP DP  RH WIND       PRES   REMARKS
FARGO          CLOUDY    39  33  79 SW12      29.61F
JAMESTOWN      MOCLDY    37  32  82 SW12      29.63S
$$





USA.gov is the U.S. government's official web portal to all federal, state and local government web resources and services.